Location: Valencia
(39.4696°N, 0.3770°W)
Time: 13:45:53
(UTC+01:00)

ISS - Visible Passes

Search period start: 23 November 2017 00:00
Search period end: 03 December 2017 00:00
Orbit: 402 x 407 km, 51.6° (Epoch: 23 November)

Date Brightness Start Highest point End Pass type
(mag) Time Alt. Az. Time Alt. Az. Time Alt. Az.
25 Nov -2.0 19:13:08 10° S 19:14:57 20° SSE 19:14:57 20° SSE visible
26 Nov -1.5 18:22:39 10° SE 18:23:37 11° SE 18:24:34 10° ESE visible
26 Nov -1.5 19:56:23 10° WSW 19:57:50 24° WSW 19:57:50 24° WSW visible
27 Nov -3.6 19:04:09 10° SW 19:07:21 55° SE 19:07:56 46° E visible
28 Nov -2.5 18:12:18 10° SSW 18:15:08 27° SE 18:17:56 10° ENE visible
28 Nov -1.8 19:48:31 10° W 19:50:36 27° WNW 19:50:36 27° WNW visible
29 Nov -3.4 18:55:51 10° WSW 18:59:05 58° NW 19:00:32 29° NNE visible
30 Nov -3.8 18:03:28 10° SW 18:06:44 71° SE 18:10:00 10° NE visible
30 Nov -1.5 19:41:04 10° WNW 19:43:02 18° NW 19:43:02 18° NW visible
01 Dec -2.2 18:48:03 10° W 18:50:56 28° NNW 18:52:49 16° NNE visible
02 Dec -1.2 19:33:53 10° NW 19:35:12 13° NNW 19:35:12 13° NNW visible
